SBI3001 UNNT-UNKL

Flight info

Callsign SBI3001
Flight time N/A
Altitude 35000
Route OGATI1J OGATI A308 RISPA A366 KESED A309 ROTLI/K0778F270 A300 RANET RANET2Z
Aircraft A320/M-SDE3FGHIRWY/LB1

Departure

Time 2026-05-01 15:02
Airport Novosibirsk Tolmachevo Airport (UNNT)

Arrival

Time N/A
Airport Krasnoyarsk International Airport (UNKL)
Time Latitude Longitude Altitude Speed Heading
2026-05-01 13:41 55.01032 82.66754 373 ft 0 kts 170°
2026-05-01 14:42 55.01039 82.66752 373 ft 4 kts 171°
2026-05-01 14:42 55.01065 82.66747 373 ft 4 kts 178°
2026-05-01 14:42 55.01093 82.66746 373 ft 4 kts 183°
2026-05-01 14:43 55.01119 82.66749 373 ft 4 kts 184°
2026-05-01 14:43 55.01141 82.66750 373 ft 0 kts 172°
2026-05-01 14:43 55.01142 82.66750 373 ft 0 kts 172°
2026-05-01 14:53 55.01137 82.66751 373 ft 2 kts 172°
2026-05-01 14:53 55.01112 82.66747 373 ft 6 kts 199°
2026-05-01 14:53 55.01092 82.66690 373 ft 5 kts 251°
2026-05-01 14:53 55.01074 82.66609 373 ft 10 kts 248°
2026-05-01 14:54 55.01040 82.66466 373 ft 15 kts 248°
2026-05-01 14:54 55.00998 82.66268 373 ft 19 kts 252°
2026-05-01 14:54 55.00954 82.66051 373 ft 20 kts 259°
2026-05-01 14:54 55.00931 82.65809 373 ft 21 kts 260°
2026-05-01 14:55 55.00908 82.65552 373 ft 22 kts 261°
2026-05-01 14:55 55.00885 82.65285 373 ft 21 kts 265°
2026-05-01 14:55 55.00874 82.65041 373 ft 20 kts 271°
2026-05-01 14:55 55.00897 82.64807 373 ft 16 kts 282°
2026-05-01 14:56 55.00920 82.64626 373 ft 14 kts 283°
2026-05-01 14:56 55.00941 82.64468 373 ft 12 kts 282°
2026-05-01 14:56 55.00958 82.64331 373 ft 11 kts 282°
2026-05-01 14:56 55.00973 82.64221 373 ft 7 kts 283°
2026-05-01 14:57 55.00983 82.64145 373 ft 6 kts 283°
2026-05-01 14:57 55.00998 82.64044 373 ft 3 kts 294°
2026-05-01 14:57 55.01007 82.64024 373 ft 1 kts 313°
2026-05-01 14:58 55.01011 82.64018 374 ft 1 kts 320°
2026-05-01 14:58 55.01020 82.64011 374 ft 1 kts 335°
2026-05-01 14:59 55.01025 82.64009 374 ft 3 kts 342°
2026-05-01 14:59 55.01067 82.63995 375 ft 9 kts 350°
2026-05-01 15:00 55.01151 82.64052 374 ft 0 kts 82°
2026-05-01 15:01 55.01159 82.64144 375 ft 22 kts 81°
2026-05-01 15:01 55.01207 82.64698 373 ft 80 kts 82°
2026-05-01 15:01 55.01329 82.66019 374 ft 138 kts 81°
2026-05-01 15:02 55.01438 82.67224 418 ft 163 kts 82°
2026-05-01 15:02 55.01553 82.68494 850 ft 158 kts 82°
2026-05-01 15:02 55.01793 82.70998 1615 ft 157 kts 88°
2026-05-01 15:02 55.01963 82.72887 2140 ft 161 kts 88°
2026-05-01 15:03 55.02141 82.74946 2413 ft 183 kts 88°
2026-05-01 15:03 55.02342 82.77278 2688 ft 206 kts 87°
2026-05-01 15:03 55.02568 82.79903 3009 ft 231 kts 86°
2026-05-01 15:03 55.02820 82.82751 3630 ft 241 kts 85°
2026-05-01 15:04 55.02851 82.85670 4408 ft 241 kts 105°
2026-05-01 15:04 55.02223 82.88375 5039 ft 248 kts 128°
2026-05-01 15:04 55.01019 82.90589 5680 ft 257 kts 138°
2026-05-01 15:04 54.99714 82.92779 5934 ft 262 kts 138°
2026-05-01 15:05 54.98416 82.95021 5999 ft 263 kts 133°
2026-05-01 15:05 54.97500 82.97789 6009 ft 268 kts 110°
2026-05-01 15:05 54.97255 83.01031 6013 ft 273 kts 94°
2026-05-01 15:05 54.97241 83.04334 6009 ft 273 kts 94°
2026-05-01 15:06 54.97223 83.07649 6009 ft 273 kts 94°
2026-05-01 15:06 54.97200 83.10919 6041 ft 276 kts 94°
2026-05-01 15:06 54.97172 83.14286 6787 ft 279 kts 94°
2026-05-01 15:06 54.97144 83.17686 7616 ft 283 kts 94°
2026-05-01 15:07 54.97114 83.21144 8394 ft 288 kts 94°
2026-05-01 15:07 54.96997 83.24643 9144 ft 292 kts 100°
2026-05-01 15:07 54.96739 83.28185 9906 ft 297 kts 100°
2026-05-01 15:07 54.96471 83.31827 10379 ft 313 kts 100°
2026-05-01 15:08 54.96178 83.35716 10612 ft 336 kts 100°
2026-05-01 15:08 54.95864 83.39871 10947 ft 353 kts 99°
2026-05-01 15:08 54.95544 83.44150 11563 ft 360 kts 99°
2026-05-01 15:08 54.95222 83.48498 12233 ft 365 kts 99°
2026-05-01 15:09 54.94897 83.52896 12918 ft 370 kts 99°
2026-05-01 15:09 54.94563 83.57371 13589 ft 375 kts 99°
2026-05-01 15:09 54.94219 83.61894 14196 ft 379 kts 99°
2026-05-01 15:09 54.93867 83.66459 14793 ft 383 kts 99°
2026-05-01 15:10 54.93515 83.71010 15376 ft 387 kts 99°
2026-05-01 15:10 54.92791 83.80377 16566 ft 395 kts 99°
2026-05-01 15:10 54.92425 83.85129 17151 ft 398 kts 99°
2026-05-01 15:11 54.92053 83.89922 17726 ft 402 kts 99°
2026-05-01 15:11 54.91281 83.99657 18778 ft 410 kts 99°
2026-05-01 15:11 54.90887 84.04573 19264 ft 412 kts 99°
2026-05-01 15:12 54.90488 84.09510 19823 ft 414 kts 99°
2026-05-01 15:12 54.89683 84.19485 20921 ft 419 kts 99°
2026-05-01 15:12 54.89279 84.24506 21461 ft 421 kts 99°
2026-05-01 15:13 54.88035 84.39742 22989 ft 429 kts 99°
2026-05-01 15:14 54.87170 84.50046 23881 ft 434 kts 99°
2026-05-01 15:14 54.86732 84.55242 24257 ft 436 kts 99°
2026-05-01 15:14 54.85852 84.65663 24979 ft 442 kts 99°
2026-05-01 15:15 54.85130 84.76390 25667 ft 447 kts 96°
2026-05-01 15:15 54.84637 84.87143 26346 ft 452 kts 95°
2026-05-01 15:16 54.84157 84.98093 27007 ft 457 kts 95°
2026-05-01 15:16 54.83680 85.09154 27638 ft 462 kts 95°
2026-05-01 15:17 54.83192 85.20322 28249 ft 467 kts 95°
2026-05-01 15:18 54.82440 85.37304 29118 ft 473 kts 95°
2026-05-01 15:18 54.82184 85.43008 29398 ft 475 kts 95°
2026-05-01 15:19 54.81398 85.60196 30155 ft 481 kts 94°
2026-05-01 15:19 54.80854 85.71878 30572 ft 484 kts 94°
2026-05-01 15:19 54.80579 85.77698 30863 ft 483 kts 94°
2026-05-01 15:20 54.80028 85.89196 31474 ft 481 kts 94°
2026-05-01 15:20 54.79747 85.94961 31775 ft 480 kts 94°
2026-05-01 15:20 54.79463 86.00706 32075 ft 478 kts 94°
2026-05-01 15:21 54.79176 86.06452 32382 ft 477 kts 94°
2026-05-01 15:21 54.78887 86.12175 32691 ft 476 kts 94°
2026-05-01 15:21 54.78595 86.17883 32991 ft 475 kts 94°
2026-05-01 15:21 54.78301 86.23585 33293 ft 474 kts 94°
2026-05-01 15:22 54.77704 86.34932 33884 ft 472 kts 94°
2026-05-01 15:22 54.77401 86.40593 34155 ft 472 kts 94°
2026-05-01 15:22 54.77098 86.46249 34418 ft 471 kts 93°
2026-05-01 15:23 54.77164 86.51868 34678 ft 466 kts 79°
2026-05-01 15:23 54.78015 86.57245 34910 ft 460 kts 63°
2026-05-01 15:23 54.79602 86.62002 35025 ft 454 kts 48°
2026-05-01 15:23 54.81615 86.66105 35052 ft 452 kts 46°
2026-05-01 15:24 54.85741 86.74305 35050 ft 451 kts 46°
2026-05-01 15:24 54.89849 86.82555 35047 ft 451 kts 46°
2026-05-01 15:25 54.93937 86.90840 35048 ft 451 kts 46°
2026-05-01 15:25 54.98021 86.99134 35049 ft 451 kts 46°
2026-05-01 15:26 55.02101 87.07446 35050 ft 451 kts 46°
2026-05-01 15:26 55.06152 87.15733 35053 ft 451 kts 46°
2026-05-01 15:27 55.10220 87.24085 35055 ft 451 kts 46°
2026-05-01 15:28 55.16316 87.36632 35062 ft 451 kts 46°
2026-05-01 15:28 55.20374 87.45023 35064 ft 451 kts 45°
2026-05-01 15:29 55.26453 87.57620 35069 ft 452 kts 45°
2026-05-01 15:30 55.34538 87.74534 35072 ft 452 kts 45°
2026-05-01 15:31 55.46601 87.99982 35081 ft 453 kts 45°
2026-05-01 15:32 55.54644 88.17081 35080 ft 453 kts 45°
2026-05-01 15:34 55.66674 88.42905 35085 ft 453 kts 45°